Simultaneous Nadir Overpasses (SNOs) Predictions

Prediction of SNOs between GOES-15 and TERRA Satellite Orbit:

Table of predicted SNOs for the next 14.0 days since TLE Epoch: 8/15/2015
Index Date Time (GOES-15) GOES-15 Lat,Lon TERRA Lat,Lon Distance(km) Time Diff (sec)
1 08/16/2015 07:16:57 -0.12,-134.76 0.44,-131.99 314.67 80
2 08/16/2015 19:40:52 0.15,-134.77 0.67,-137.14 270.50 80
3 08/18/2015 19:26:00 0.14,-134.71 0.00,-134.19 59.66 80
4 08/20/2015 19:13:47 0.14,-134.64 -0.60,-131.22 389.22 80
5 08/21/2015 07:37:50 -0.17,-134.60 -0.55,-136.40 204.33 80
6 08/23/2015 07:22:57 -0.16,-134.53 0.07,-133.44 124.46 80
7 08/23/2015 19:46:52 0.19,-134.53 1.04,-138.59 460.81 80
8 08/25/2015 07:10:44 -0.16,-134.45 0.69,-130.47 452.53 80
9 08/25/2015 19:34:39 0.19,-134.45 0.42,-135.62 133.03 80
10 08/27/2015 19:19:46 0.19,-134.36 -0.20,-132.66 194.06 80
11 08/28/2015 07:43:49 -0.21,-134.31 -0.94,-137.84 400.59 80




NCC Satellite Simultaneous Nadir Overpasses (SNOs) Prediction Service
